| time (UTC) | temp F | wind direction | speed MPH | gust MPH | rain 1hr in | rain 24hr in | rain mn in | humidity % | barometer mb |
| 20260903040112 | 80 | 0 | 0.0 | 0.0 | 0.00 | 0.00 | 0.00 | 79 | 1017.8 |
| 20260903035534 | 80 | 0 | 0.0 | 0.0 | 0.00 | 0.00 | 0.00 | 79 | 1017.7 |
| 20260903035230 | 80 | 0 | 0.0 | 0.0 | 0.00 | 0.00 | 0.00 | 78 | 1017.8 |
| 20260903034548 | 80 | 0 | 0.0 | 0.0 | 0.00 | 0.00 | 0.00 | 78 | 1017.9 |
| 20260903034036 | 80 | 0 | 0.0 | 0.0 | 0.00 | 0.00 | 0.00 | 78 | 1017.9 |
| 20260903033530 | 80 | 0 | 0.0 | 0.0 | 0.00 | 0.00 | 0.00 | 78 | 1018.0 |
| 20260903033054 | 80 | 0 | 0.0 | 0.0 | 0.00 | 0.00 | 0.00 | 77 | 1017.9 |
| 20260903032532 | 81 | 0 | 0.0 | 0.0 | 0.00 | 0.00 | 0.00 | 78 | 1018.0 |
| 20260903032032 | 81 | 0 | 0.0 | 0.0 | 0.00 | 0.00 | 0.00 | 78 | 1018.0 |
| 20260903031606 | 81 | 0 | 0.0 | 0.0 | 0.00 | 0.00 | 0.00 | 77 | 1018.0 |
| 20260903031029 | 81 | 0 | 0.0 | 4.0 | 0.00 | 0.00 | 0.00 | 77 | 1018.1 |
| 20260903030531 | 81 | 0 | 0.0 | 4.0 | 0.00 | 0.00 | 0.00 | 77 | 1018.1 |
| 20260903030053 | 81 | 42 | 0.0 | 0.0 | 0.00 | 0.00 | 0.00 | 77 | 1018.0 |
| 20260903025533 | 81 | 0 | 0.0 | 0.0 | 0.00 | 0.00 | 0.00 | 76 | 1018.0 |
| 20260903025031 | 81 | 0 | 0.0 | 0.0 | 0.00 | 0.00 | 0.00 | 76 | 1018.0 |
| 20260903024547 | 82 | 0 | 0.0 | 0.0 | 0.00 | 0.00 | 0.00 | 75 | 1018.0 |
| 20260903024029 | 82 | 0 | 0.0 | 0.0 | 0.00 | 0.00 | 0.00 | 75 | 1018.0 |
| 20260903023529 | 82 | 0 | 0.0 | 0.0 | 0.00 | 0.00 | 0.00 | 74 | 1018.0 |
| 20260903023043 | 82 | 0 | 0.0 | 0.0 | 0.00 | 0.00 | 0.00 | 74 | 1018.0 |
| 20260903022533 | 82 | 0 | 0.0 | 0.0 | 0.00 | 0.00 | 0.00 | 73 | 1018.0 |
| 20260903022031 | 82 | 0 | 0.0 | 0.0 | 0.00 | 0.00 | 0.00 | 73 | 1017.9 |
| 20260903021554 | 83 | 0 | 0.0 | 0.0 | 0.00 | 0.00 | 0.00 | 72 | 1017.9 |
| 20260903021034 | 83 | 0 | 0.0 | 0.0 | 0.00 | 0.00 | 0.00 | 72 | 1017.9 |
| 20260903020529 | 83 | 0 | 0.0 | 0.0 | 0.00 | 0.00 | 0.00 | 71 | 1017.9 |
| 20260903020049 | 83 | 0 | 0.0 | 0.0 | 0.00 | 0.00 | 0.00 | 71 | 1017.9 |
| 20260903015529 | 83 | 0 | 0.0 | 0.0 | 0.00 | 0.00 | 0.00 | 71 | 1017.9 |
| 20260903015031 | 83 | 0 | 0.0 | 0.0 | 0.00 | 0.00 | 0.00 | 71 | 1017.8 |
| 20260903014556 | 84 | 0 | 0.0 | 0.0 | 0.00 | 0.00 | 0.00 | 70 | 1017.7 |
| 20260903014032 | 84 | 0 | 0.0 | 0.0 | 0.00 | 0.00 | 0.00 | 70 | 1017.8 |
| 20260903013529 | 84 | 0 | 0.0 | 0.0 | 0.00 | 0.00 | 0.00 | 70 | 1017.8 |
| 20260903013053 | 84 | 0 | 0.0 | 0.0 | 0.00 | 0.00 | 0.00 | 69 | 1017.6 |
| 20260903012532 | 84 | 0 | 0.0 | 0.0 | 0.00 | 0.00 | 0.00 | 68 | 1017.6 |
| 20260903012033 | 85 | 0 | 0.0 | 0.0 | 0.00 | 0.00 | 0.00 | 67 | 1017.6 |
| 20260903011545 | 85 | 0 | 0.0 | 0.0 | 0.00 | 0.00 | 0.00 | 67 | 1017.6 |
| 20260903011032 | 85 | 0 | 0.0 | 0.0 | 0.00 | 0.00 | 0.00 | 65 | 1017.5 |
| 20260903010529 | 86 | 0 | 0.0 | 0.0 | 0.00 | 0.00 | 0.00 | 65 | 1017.4 |
| 20260903010041 | 86 | 0 | 0.0 | 0.0 | 0.00 | 0.00 | 0.00 | 65 | 1017.3 |
| 20260903005532 | 86 | 0 | 0.0 | 0.0 | 0.00 | 0.00 | 0.00 | 65 | 1017.4 |
| 20260903005031 | 86 | 0 | 0.0 | 0.0 | 0.00 | 0.00 | 0.00 | 65 | 1017.4 |
| 20260903004552 | 87 | 0 | 0.0 | 0.0 | 0.00 | 0.00 | 0.00 | 64 | 1017.4 |
| 20260903004030 | 87 | 0 | 0.0 | 0.0 | 0.00 | 0.00 | 0.00 | 63 | 1017.2 |
| 20260903003529 | 87 | 0 | 0.0 | 0.0 | 0.00 | 0.00 | 0.00 | 63 | 1017.1 |
| 20260903003047 | 88 | 0 | 0.0 | 0.0 | 0.00 | 0.00 | 0.00 | 63 | 1017.1 |
| 20260903002528 | 88 | 0 | 0.0 | 0.0 | 0.00 | 0.00 | 0.00 | 62 | 1017.1 |
| 20260903002029 | 88 | 0 | 0.0 | 1.0 | 0.00 | 0.00 | 0.00 | 61 | 1017.2 |
| 20260903001542 | 89 | 0 | 0.0 | 1.0 | 0.00 | 0.00 | 0.00 | 60 | 1017.0 |
| 20260903001036 | 89 | 0 | 0.0 | 0.0 | 0.00 | 0.00 | 0.00 | 60 | 1016.9 |
| 20260903000528 | 89 | 0 | 0.0 | 0.0 | 0.00 | 0.00 | 0.00 | 59 | 1017.0 |
| 20260903000058 | 90 | 0 | 0.0 | 0.0 | 0.00 | 0.00 | 0.00 | 59 | 1016.9 |
| 20260902235529 | 90 | 0 | 0.0 | 0.0 | 0.00 | 0.00 | 0.00 | 58 | 1017.0 |
| 20260902235032 | 90 | 0 | 0.0 | 0.0 | 0.00 | 0.00 | 0.00 | 58 | 1017.0 |
| 20260902234550 | 90 | 0 | 0.0 | 0.0 | 0.00 | 0.00 | 0.00 | 58 | 1017.0 |
| 20260902234030 | 91 | 0 | 0.0 | 0.0 | 0.00 | 0.00 | 0.00 | 57 | 1017.0 |
| 20260902233528 | 91 | 0 | 0.0 | 2.0 | 0.00 | 0.00 | 0.00 | 57 | 1016.9 |
| 20260902233047 | 91 | 0 | 0.0 | 2.0 | 0.00 | 0.00 | 0.00 | 56 | 1016.9 |
| 20260902232530 | 91 | 0 | 0.0 | 2.0 | 0.00 | 0.00 | 0.00 | 55 | 1017.0 |
| 20260902232029 | 92 | 0 | 0.0 | 2.0 | 0.00 | 0.00 | 0.00 | 55 | 1016.9 |
| 20260902231542 | 92 | 0 | 0.0 | 2.0 | 0.00 | 0.00 | 0.00 | 54 | 1017.0 |
| 20260902231029 | 93 | 0 | 0.0 | 4.0 | 0.00 | 0.00 | 0.00 | 53 | 1016.9 |
| 20260902230531 | 93 | 41 | 0.0 | 4.0 | 0.00 | 0.00 | 0.00 | 51 | 1016.9 |
| 20260902230056 | 93 | 48 | 0.0 | 3.0 | 0.00 | 0.00 | 0.00 | 51 | 1016.9 |
| 20260902225532 | 94 | 49 | 0.0 | 4.0 | 0.00 | 0.00 | 0.00 | 52 | 1017.0 |
| 20260902225032 | 94 | 49 | 1.0 | 4.0 | 0.00 | 0.00 | 0.00 | 50 | 1016.8 |
| 20260902224549 | 94 | 50 | 1.0 | 4.0 | 0.00 | 0.00 | 0.00 | 50 | 1017.0 |
| 20260902224031 | 94 | 110 | 0.0 | 5.0 | 0.00 | 0.00 | 0.00 | 49 | 1017.0 |
| 20260902223530 | 94 | 69 | 2.0 | 6.0 | 0.00 | 0.00 | 0.00 | 49 | 1017.0 |
| 20260902223046 | 94 | 90 | 2.0 | 6.0 | 0.00 | 0.00 | 0.00 | 49 | 1017.0 |
| 20260902222530 | 94 | 72 | 2.0 | 5.0 | 0.00 | 0.00 | 0.00 | 48 | 1017.0 |
| 20260902222030 | 95 | 48 | 2.0 | 6.0 | 0.00 | 0.00 | 0.00 | 47 | 1017.0 |
| 20260902221553 | 95 | 40 | 1.0 | 6.0 | 0.00 | 0.00 | 0.00 | 48 | 1017.1 |
| 20260902221030 | 95 | 40 | 2.0 | 9.0 | 0.00 | 0.00 | 0.00 | 47 | 1017.0 |
| 20260902220528 | 95 | 39 | 4.0 | 9.0 | 0.00 | 0.00 | 0.00 | 47 | 1017.1 |
| 20260902220049 | 95 | 140 | 3.0 | 7.0 | 0.00 | 0.00 | 0.00 | 47 | 1017.1 |
| 20260902215531 | 95 | 0 | 1.0 | 6.0 | 0.00 | 0.00 | 0.00 | 46 | 1017.1 |
| 20260902215027 | 96 | 59 | 2.0 | 5.0 | 0.00 | 0.00 | 0.00 | 46 | 1017.1 |
| 20260902214559 | 96 | 50 | 2.0 | 6.0 | 0.00 | 0.00 | 0.00 | 45 | 1017.2 |
| 20260902214029 | 95 | 40 | 3.0 | 6.0 | 0.00 | 0.00 | 0.00 | 46 | 1017.2 |
| 20260902213528 | 95 | 20 | 2.0 | 8.0 | 0.00 | 0.00 | 0.00 | 47 | 1017.2 |
| 20260902213052 | 95 | 32 | 3.0 | 8.0 | 0.00 | 0.00 | 0.00 | 47 | 1017.2 |
| 20260902212528 | 95 | 0 | 1.0 | 9.0 | 0.00 | 0.00 | 0.00 | 46 | 1017.2 |
| 20260902212031 | 95 | 19 | 3.0 | 9.0 | 0.00 | 0.00 | 0.00 | 47 | 1017.2 |
| 20260902211603 | 96 | 139 | 1.0 | 8.0 | 0.00 | 0.00 | 0.00 | 47 | 1017.2 |
| 20260902211028 | 96 | 101 | 1.0 | 6.0 | 0.00 | 0.00 | 0.00 | 48 | 1017.2 |
| 20260902210531 | 96 | 92 | 1.0 | 6.0 | 0.00 | 0.00 | 0.00 | 48 | 1017.3 |
| 20260902210110 | 95 | 126 | 1.0 | 4.0 | 0.00 | 0.00 | 0.00 | 48 | 1017.3 |
| 20260902205531 | 96 | 34 | 2.0 | 4.0 | 0.00 | 0.00 | 0.00 | 48 | 1017.4 |
| 20260902205029 | 96 | 30 | 1.0 | 5.0 | 0.00 | 0.00 | 0.00 | 47 | 1017.4 |
| 20260902204550 | 96 | 0 | 1.0 | 5.0 | 0.00 | 0.00 | 0.00 | 48 | 1017.4 |
| 20260902204028 | 96 | 36 | 1.0 | 6.0 | 0.00 | 0.00 | 0.00 | 47 | 1017.5 |
| 20260902203528 | 96 | 42 | 1.0 | 6.0 | 0.00 | 0.00 | 0.00 | 47 | 1017.4 |
| 20260902203052 | 96 | 40 | 3.0 | 7.0 | 0.00 | 0.00 | 0.00 | 48 | 1017.5 |
| 20260902202528 | 96 | 127 | 0.0 | 7.0 | 0.00 | 0.00 | 0.00 | 48 | 1017.6 |
| 20260902202029 | 96 | 156 | 2.0 | 7.0 | 0.00 | 0.00 | 0.00 | 47 | 1017.6 |
| 20260902201607 | 96 | 273 | 1.0 | 9.0 | 0.00 | 0.00 | 0.00 | 47 | 1017.6 |
| 20260902201028 | 96 | 42 | 3.0 | 9.0 | 0.00 | 0.00 | 0.00 | 46 | 1017.8 |
| 20260902200531 | 95 | 53 | 2.0 | 5.0 | 0.00 | 0.00 | 0.00 | 48 | 1017.9 |
| 20260902200047 | 95 | 0 | 1.0 | 9.0 | 0.00 | 0.00 | 0.00 | 47 | 1017.9 |
| 20260902195532 | 96 | 94 | 2.0 | 11.0 | 0.00 | 0.00 | 0.00 | 46 | 1018.0 |
| 20260902195030 | 95 | 59 | 3.0 | 11.0 | 0.00 | 0.00 | 0.00 | 47 | 1018.0 |
| 20260902194550 | 95 | 25 | 3.0 | 6.0 | 0.00 | 0.00 | 0.00 | 49 | 1018.0 |
| 20260902194031 | 95 | 0 | 0.0 | 9.0 | 0.00 | 0.00 | 0.00 | 50 | 1018.0 |
| 20260902193529 | 95 | 0 | 2.0 | 9.0 | 0.00 | 0.00 | 0.00 | 49 | 1018.1 |
| 20260902193053 | 96 | 119 | 4.0 | 9.0 | 0.00 | 0.00 | 0.00 | 48 | 1018.2 |
| 20260902192528 | 96 | 209 | 1.0 | 8.0 | 0.00 | 0.00 | 0.00 | 47 | 1018.2 |
| 20260902192028 | 97 | 148 | 1.0 | 7.0 | 0.00 | 0.00 | 0.00 | 48 | 1018.2 |
| 20260902191558 | 96 | 0 | 1.0 | 7.0 | 0.00 | 0.00 | 0.00 | 47 | 1018.3 |
| 20260902191028 | 96 | 65 | 1.0 | 5.0 | 0.00 | 0.00 | 0.00 | 47 | 1018.3 |
| 20260902190528 | 96 | 59 | 1.0 | 5.0 | 0.00 | 0.00 | 0.00 | 47 | 1018.4 |
| 20260902190046 | 95 | 67 | 1.0 | 5.0 | 0.00 | 0.00 | 0.00 | 47 | 1018.4 |
| 20260902185533 | 94 | 82 | 1.0 | 4.0 | 0.00 | 0.00 | 0.00 | 48 | 1018.6 |
| 20260902185030 | 94 | 51 | 0.0 | 4.0 | 0.00 | 0.00 | 0.00 | 50 | 1018.6 |
| 20260902184543 | 94 | 0 | 1.0 | 5.0 | 0.00 | 0.00 | 0.00 | 49 | 1018.6 |